Time,TemperatureF,DewpointF,PressureIn,WindDirection,WindDirectionDegrees,WindSpeedMPH,WindSpeedGustMPH,Humidity,HourlyPrecipIn,Conditions,Clouds,dailyrainin,SolarRadiationWatts/m^2,SoftwareType,DateUTC
2013-01-20 00:22:00,4.0,1.0,-100.00,SSW,194,3.0,4.0,86,0.00,,,-99.99,0.000000,,2013-01-20 07:22:00,
2013-01-20 00:32:00,4.0,1.0,-100.00,SW,220,2.0,3.0,88,0.00,,,-99.99,0.000000,,2013-01-20 07:32:00,
2013-01-20 00:42:00,3.0,0.0,-100.00,South,169,3.0,4.0,86,0.00,,,-99.99,0.000000,,2013-01-20 07:42:00,
2013-01-20 00:52:00,4.0,1.0,-100.00,South,172,4.0,5.0,88,0.00,,,-99.99,0.000000,,2013-01-20 07:52:00,
2013-01-20 01:02:00,4.0,2.0,-100.00,South,174,5.0,5.0,89,0.00,,,-99.99,0.000000,,2013-01-20 08:02:00,
2013-01-20 01:12:00,5.0,2.0,-100.00,South,173,5.0,6.0,88,0.00,,,-99.99,0.000000,,2013-01-20 08:12:00,
2013-01-20 01:21:00,5.0,2.0,-100.00,South,170,3.0,6.0,85,0.00,,,-99.99,0.000000,,2013-01-20 08:21:00,
2013-01-20 01:32:00,3.0,0.0,-100.00,SSE,165,3.0,4.0,85,0.00,,,-99.99,0.000000,,2013-01-20 08:32:00,
2013-01-20 01:42:00,2.0,-1.0,-100.00,SSE,166,3.0,4.0,88,0.00,,,-99.99,0.000000,,2013-01-20 08:42:00,
2013-01-20 01:52:00,4.0,1.0,-100.00,South,170,4.0,5.0,90,0.00,,,-99.99,0.000000,,2013-01-20 08:52:00,
2013-01-20 02:02:00,4.0,1.0,-100.00,South,175,4.0,5.0,87,0.00,,,-99.99,0.000000,,2013-01-20 09:02:00,
2013-01-20 02:12:00,3.0,-1.0,-100.00,South,173,4.0,4.0,85,0.00,,,-99.99,0.000000,,2013-01-20 09:12:00,
2013-01-20 02:22:00,3.0,1.0,-100.00,South,173,4.0,5.0,90,0.00,,,-99.99,0.000000,,2013-01-20 09:22:00,
2013-01-20 02:33:00,3.0,0.0,-100.00,South,174,4.0,5.0,86,0.00,,,-99.99,0.000000,,2013-01-20 09:33:00,
2013-01-20 02:42:00,4.0,1.0,-100.00,South,169,4.0,5.0,88,0.00,,,-99.99,0.000000,,2013-01-20 09:42:00,
2013-01-20 02:52:00,3.0,-1.0,-100.00,SSW,193,3.0,4.0,85,0.00,,,-99.99,0.000000,,2013-01-20 09:52:00,
2013-01-20 03:02:00,2.0,0.0,-100.00,SSW,213,2.0,3.0,89,0.00,,,-99.99,0.000000,,2013-01-20 10:02:00,
2013-01-20 03:11:00,2.0,-1.0,-100.00,South,187,3.0,4.0,85,0.00,,,-99.99,0.000000,,2013-01-20 10:11:00,
2013-01-20 03:22:00,1.0,-2.0,-100.00,SSE,166,4.0,4.0,88,0.00,,,-99.99,0.000000,,2013-01-20 10:22:00,
2013-01-20 03:32:00,4.0,1.0,-100.00,SSE,168,4.0,5.0,89,0.00,,,-99.99,0.000000,,2013-01-20 10:32:00,
2013-01-20 03:42:00,2.0,-1.0,-100.00,South,177,4.0,4.0,85,0.00,,,-99.99,0.000000,,2013-01-20 10:42:00,
2013-01-20 03:50:00,3.0,0.0,-100.00,South,169,4.0,5.0,88,0.00,,,-99.99,0.000000,,2013-01-20 10:50:00,
2013-01-20 03:52:00,2.0,-1.0,-100.00,SSW,200,4.0,4.0,88,0.00,,,-99.99,0.000000,,2013-01-20 10:52:00,
2013-01-20 04:02:00,1.0,-1.0,-100.00,SSE,164,4.0,5.0,88,0.00,,,-99.99,0.000000,,2013-01-20 11:02:00,
2013-01-20 04:12:00,3.0,0.0,-100.00,South,169,4.0,5.0,88,0.00,,,-99.99,0.000000,,2013-01-20 11:12:00,
2013-01-20 04:22:00,3.0,0.0,-100.00,South,169,4.0,5.0,88,0.00,,,-99.99,0.000000,,2013-01-20 11:22:00,
2013-01-20 04:32:00,3.0,0.0,-100.00,South,169,4.0,5.0,88,0.00,,,-99.99,0.000000,,2013-01-20 11:32:00,
2013-01-20 04:42:00,3.0,0.0,-100.00,South,169,4.0,5.0,88,0.00,,,-99.99,0.000000,,2013-01-20 11:42:00,
2013-01-20 05:23:00,1.0,-2.0,-100.00,South,171,4.0,5.0,87,0.00,,,-99.99,0.000000,,2013-01-20 12:23:00,
2013-01-20 05:33:00,0.0,-3.0,-100.00,SSE,167,3.0,4.0,84,0.00,,,-99.99,0.000000,,2013-01-20 12:33:00,
2013-01-20 05:43:00,1.0,-1.0,-100.00,SSE,163,4.0,5.0,90,0.00,,,-99.99,0.000000,,2013-01-20 12:43:00,
2013-01-20 05:53:00,1.0,-1.0,-100.00,SSE,162,4.0,5.0,88,0.00,,,-99.99,0.000000,,2013-01-20 12:53:00,
2013-01-20 06:02:00,1.0,-2.0,-100.00,South,176,4.0,5.0,87,0.00,,,-99.99,0.000000,,2013-01-20 13:02:00,
2013-01-20 06:12:00,0.0,-2.0,-100.00,SSE,168,4.0,5.0,87,0.00,,,-99.99,0.000000,,2013-01-20 13:12:00,
2013-01-20 06:22:00,1.0,-3.0,-100.00,SW,216,3.0,5.0,85,0.00,,,-99.99,0.000000,,2013-01-20 13:22:00,
2013-01-20 06:32:00,1.0,-1.0,-100.00,East,101,1.0,3.0,90,0.00,,,-99.99,0.000000,,2013-01-20 13:32:00,
2013-01-20 06:42:00,1.0,-2.0,-100.00,SSE,156,3.0,3.0,88,0.00,,,-99.99,0.000000,,2013-01-20 13:42:00,
2013-01-20 06:52:00,0.0,-3.0,-100.00,South,183,3.0,4.0,87,0.00,,,-99.99,0.000000,,2013-01-20 13:52:00,
2013-01-20 07:02:00,1.0,-2.0,-100.00,SSW,194,4.0,5.0,88,0.00,,,-99.99,0.000000,,2013-01-20 14:02:00,
2013-01-20 07:12:00,0.0,-5.0,-100.00,South,181,2.0,4.0,81,0.00,,,-99.99,0.000000,,2013-01-20 14:12:00,
2013-01-20 07:22:00,-2.0,-5.0,-100.00,SE,126,2.0,4.0,88,0.00,,,-99.99,0.000000,,2013-01-20 14:22:00,
2013-01-20 07:32:00,-1.0,-3.0,-100.00,SSE,147,3.0,4.0,90,0.00,,,-99.99,0.000000,,2013-01-20 14:32:00,
2013-01-20 07:42:00,0.0,-2.0,-100.00,SSE,163,3.0,4.0,88,0.00,,,-99.99,0.000000,,2013-01-20 14:42:00,
2013-01-20 07:52:00,-1.0,-5.0,-100.00,SE,134,2.0,4.0,82,0.00,,,-99.99,1.000000,,2013-01-20 14:52:00,
2013-01-20 08:02:00,-2.0,-5.0,-100.00,South,169,2.0,3.0,86,0.00,,,-99.99,3.000000,,2013-01-20 15:02:00,
2013-01-20 08:12:00,1.0,-1.0,-100.00,South,172,3.0,4.0,89,0.00,,,-99.99,5.000000,,2013-01-20 15:12:00,
2013-01-20 08:22:00,-1.0,-5.0,-100.00,WSW,244,2.0,4.0,84,0.00,,,-99.99,7.000000,,2013-01-20 15:22:00,
2013-01-20 08:32:00,-2.0,-5.0,-100.00,SSW,200,2.0,3.0,86,0.00,,,-99.99,9.000000,,2013-01-20 15:32:00,
2013-01-20 08:42:00,-3.0,-7.0,-100.00,SE,132,1.0,2.0,85,0.00,,,-99.99,10.000000,,2013-01-20 15:42:00,
2013-01-20 08:50:00,-4.0,-7.0,-100.00,South,181,1.0,2.0,84,0.00,,,-99.99,20.000000,,2013-01-20 15:50:00,
2013-01-20 08:52:00,-4.0,-7.0,-100.00,South,188,1.0,3.0,85,0.00,,,-99.99,12.000000,,2013-01-20 15:52:00,
2013-01-20 09:02:00,-4.0,-8.0,-100.00,SSW,196,1.0,2.0,84,0.00,,,-99.99,13.000000,,2013-01-20 16:02:00,
2013-01-20 09:11:00,-4.0,-7.0,-100.00,South,181,1.0,2.0,84,0.00,,,-99.99,20.000000,,2013-01-20 16:11:00,
2013-01-20 09:22:00,-4.0,-7.0,-100.00,South,181,1.0,2.0,84,0.00,,,-99.99,20.000000,,2013-01-20 16:22:00,
2013-01-20 09:32:00,-4.0,-7.0,-100.00,South,181,1.0,2.0,84,0.00,,,-99.99,20.000000,,2013-01-20 16:32:00,
2013-01-20 09:42:00,-4.0,-7.0,-100.00,South,181,1.0,2.0,84,0.00,,,-99.99,20.000000,,2013-01-20 16:42:00,
2013-01-20 10:23:00,4.0,2.0,-100.00,South,174,2.0,3.0,89,0.00,,,-99.99,321.000000,,2013-01-20 17:23:00,
2013-01-20 10:33:00,5.0,2.0,-100.00,NW,318,2.0,3.0,89,0.00,,,-99.99,223.000000,,2013-01-20 17:33:00,
2013-01-20 10:43:00,6.0,3.0,-100.00,SW,221,1.0,2.0,89,0.00,,,-99.99,190.000000,,2013-01-20 17:43:00,
2013-01-20 10:53:00,7.0,5.0,-100.00,ENE,63,1.0,2.0,88,0.00,,,-99.99,266.000000,,2013-01-20 17:53:00,
2013-01-20 11:02:00,7.0,4.0,-100.00,SE,135,2.0,3.0,87,0.00,,,-99.99,266.000000,,2013-01-20 18:02:00,
2013-01-20 11:12:00,7.0,5.0,-100.00,SE,138,2.0,3.0,88,0.00,,,-99.99,284.000000,,2013-01-20 18:12:00,
2013-01-20 11:22:00,9.0,5.0,-100.00,ESE,107,1.0,2.0,86,0.00,,,-99.99,289.000000,,2013-01-20 18:22:00,
2013-01-20 11:33:00,8.0,5.0,-100.00,ESE,123,2.0,2.0,86,0.00,,,-99.99,301.000000,,2013-01-20 18:33:00,
2013-01-20 11:42:00,9.0,6.0,-100.00,ESE,117,2.0,2.0,86,0.00,,,-99.99,380.000000,,2013-01-20 18:42:00,
2013-01-20 11:52:00,11.0,8.0,-100.00,East,85,1.0,2.0,88,0.00,,,-99.99,399.000000,,2013-01-20 18:52:00,
2013-01-20 12:02:00,12.0,8.0,-100.00,ENE,72,1.0,2.0,84,0.00,,,-99.99,386.000000,,2013-01-20 19:02:00,
2013-01-20 12:12:00,12.0,8.0,-100.00,ESE,112,2.0,3.0,84,0.00,,,-99.99,435.000000,,2013-01-20 19:12:00,
2013-01-20 12:22:00,12.0,7.0,-100.00,East,97,2.0,3.0,81,0.00,,,-99.99,436.000000,,2013-01-20 19:22:00,
2013-01-20 12:33:00,10.0,6.0,-100.00,SSW,203,3.0,5.0,83,0.00,,,-99.99,369.000000,,2013-01-20 19:33:00,
2013-01-20 12:42:00,12.0,7.0,-100.00,SW,226,2.0,4.0,81,0.00,,,-99.99,447.000000,,2013-01-20 19:42:00,
2013-01-20 12:52:00,12.0,6.0,-100.00,SE,135,2.0,5.0,79,0.00,,,-99.99,444.000000,,2013-01-20 19:52:00,
2013-01-20 13:02:00,11.0,6.0,-100.00,SSW,193,3.0,5.0,80,0.00,,,-99.99,432.000000,,2013-01-20 20:02:00,
2013-01-20 13:12:00,13.0,7.0,-100.00,ESE,108,2.0,3.0,78,0.00,,,-99.99,448.000000,,2013-01-20 20:12:00,
2013-01-20 13:22:00,14.0,7.0,-100.00,SE,129,1.0,5.0,75,0.00,,,-99.99,448.000000,,2013-01-20 20:22:00,
2013-01-20 13:32:00,14.0,7.0,-100.00,SE,129,1.0,5.0,75,0.00,,,-99.99,448.000000,,2013-01-20 20:32:00,
2013-01-20 13:42:00,14.0,7.0,-100.00,East,83,3.0,5.0,74,0.00,,,-99.99,433.000000,,2013-01-20 20:42:00,
2013-01-20 13:50:00,12.0,6.0,-100.00,West,276,3.0,4.0,76,0.00,,,-99.99,401.000000,,2013-01-20 20:50:00,
2013-01-20 13:52:00,15.0,8.0,-100.00,East,86,2.0,4.0,71,0.00,,,-99.99,426.000000,,2013-01-20 20:52:00,
2013-01-20 14:03:00,12.0,6.0,-100.00,WSW,257,4.0,5.0,75,0.00,,,-99.99,416.000000,,2013-01-20 21:03:00,
2013-01-20 14:12:00,12.0,6.0,-100.00,West,276,3.0,4.0,76,0.00,,,-99.99,401.000000,,2013-01-20 21:12:00,
2013-01-20 14:22:00,12.0,6.0,-100.00,West,276,3.0,4.0,76,0.00,,,-99.99,401.000000,,2013-01-20 21:22:00,
2013-01-20 14:33:00,12.0,6.0,-100.00,West,276,3.0,4.0,76,0.00,,,-99.99,401.000000,,2013-01-20 21:33:00,
2013-01-20 14:42:00,12.0,6.0,-100.00,West,276,3.0,4.0,76,0.00,,,-99.99,401.000000,,2013-01-20 21:42:00,
2013-01-20 15:23:00,17.0,7.0,-100.00,SSW,205,2.0,4.0,66,0.00,,,-99.99,294.000000,,2013-01-20 22:23:00,
2013-01-20 15:33:00,17.0,7.0,-100.00,SE,134,2.0,3.0,65,0.00,,,-99.99,282.000000,,2013-01-20 22:33:00,
2013-01-20 15:43:00,18.0,8.0,-100.00,SE,134,2.0,3.0,65,0.00,,,-99.99,262.000000,,2013-01-20 22:43:00,
2013-01-20 15:53:00,18.0,9.0,-100.00,NE,54,1.0,2.0,65,0.00,,,-99.99,239.000000,,2013-01-20 22:53:00,
2013-01-20 16:02:00,18.0,8.0,-100.00,NE,55,1.0,3.0,65,0.00,,,-99.99,217.000000,,2013-01-20 23:02:00,
2013-01-20 16:12:00,17.0,7.0,-100.00,WSW,246,1.0,3.0,64,0.00,,,-99.99,191.000000,,2013-01-20 23:12:00,
2013-01-20 16:22:00,16.0,7.0,-100.00,NNW,345,3.0,3.0,68,0.00,,,-99.99,169.000000,,2013-01-20 23:22:00,
2013-01-20 16:33:00,15.0,7.0,-100.00,NNW,335,2.0,3.0,70,0.00,,,-99.99,144.000000,,2013-01-20 23:33:00,
2013-01-20 16:42:00,16.0,8.0,-100.00,NNW,328,1.0,2.0,69,0.00,,,-99.99,121.000000,,2013-01-20 23:42:00,
2013-01-20 16:52:00,16.0,6.0,-100.00,SSW,200,1.0,3.0,63,0.00,,,-99.99,99.000000,,2013-01-20 23:52:00,
2013-01-20 17:02:00,15.0,4.0,-100.00,South,175,2.0,4.0,62,0.00,,,-99.99,75.000000,,2013-01-21 00:02:00,
2013-01-20 17:12:00,12.0,4.0,-100.00,SSE,157,4.0,6.0,71,0.00,,,-99.99,31.000000,,2013-01-21 00:12:00,
2013-01-20 17:22:00,11.0,5.0,-100.00,South,172,4.0,5.0,76,0.00,,,-99.99,24.000000,,2013-01-21 00:22:00,
2013-01-20 17:32:00,11.0,5.0,-100.00,SSE,166,4.0,6.0,76,0.00,,,-99.99,17.000000,,2013-01-21 00:32:00,
2013-01-20 17:42:00,11.0,5.0,-100.00,South,176,4.0,5.0,77,0.00,,,-99.99,10.000000,,2013-01-21 00:42:00,
2013-01-20 17:52:00,11.0,5.0,-100.00,South,176,4.0,5.0,77,0.00,,,-99.99,10.000000,,2013-01-21 00:52:00,
2013-01-20 18:02:00,11.0,5.0,-100.00,South,174,4.0,6.0,78,0.00,,,-99.99,2.000000,,2013-01-21 01:02:00,
2013-01-20 18:12:00,10.0,6.0,-100.00,South,184,4.0,5.0,81,0.00,,,-99.99,0.000000,,2013-01-21 01:12:00,
2013-01-20 18:22:00,9.0,4.0,-100.00,South,170,4.0,6.0,79,0.00,,,-99.99,0.000000,,2013-01-21 01:22:00,
2013-01-20 18:32:00,9.0,5.0,-100.00,South,171,3.0,4.0,85,0.00,,,-99.99,0.000000,,2013-01-21 01:32:00,
2013-01-20 18:42:00,8.0,4.0,-100.00,SSW,211,3.0,5.0,82,0.00,,,-99.99,0.000000,,2013-01-21 01:42:00,
2013-01-20 18:50:00,9.0,5.0,-100.00,South,169,4.0,6.0,83,0.00,,,-99.99,0.000000,,2013-01-21 01:50:00,
2013-01-20 18:52:00,9.0,5.0,-100.00,South,175,4.0,5.0,84,0.00,,,-99.99,0.000000,,2013-01-21 01:52:00,
2013-01-20 19:02:00,9.0,6.0,-100.00,South,170,5.0,6.0,85,0.00,,,-99.99,0.000000,,2013-01-21 02:02:00,
2013-01-20 19:12:00,9.0,5.0,-100.00,South,169,4.0,6.0,83,0.00,,,-99.99,0.000000,,2013-01-21 02:12:00,
2013-01-20 19:22:00,9.0,5.0,-100.00,South,169,4.0,6.0,83,0.00,,,-99.99,0.000000,,2013-01-21 02:22:00,
2013-01-20 19:32:00,9.0,5.0,-100.00,South,169,4.0,6.0,83,0.00,,,-99.99,0.000000,,2013-01-21 02:32:00,
2013-01-20 19:42:00,9.0,5.0,-100.00,South,169,4.0,6.0,83,0.00,,,-99.99,0.000000,,2013-01-21 02:42:00,
2013-01-20 20:23:00,5.0,1.0,-100.00,South,184,4.0,5.0,86,0.00,,,-99.99,0.000000,,2013-01-21 03:23:00,
2013-01-20 20:33:00,5.0,2.0,-100.00,South,188,4.0,5.0,88,0.00,,,-99.99,0.000000,,2013-01-21 03:33:00,
2013-01-20 20:43:00,4.0,1.0,-100.00,South,174,4.0,4.0,87,0.00,,,-99.99,0.000000,,2013-01-21 03:43:00,
2013-01-20 20:53:00,4.0,1.0,-100.00,South,180,4.0,5.0,87,0.00,,,-99.99,0.000000,,2013-01-21 03:53:00,
2013-01-20 21:02:00,3.0,0.0,-100.00,SSW,194,4.0,4.0,88,0.00,,,-99.99,0.000000,,2013-01-21 04:02:00,
2013-01-20 21:12:00,4.0,2.0,-100.00,South,181,4.0,5.0,90,0.00,,,-99.99,0.000000,,2013-01-21 04:12:00,
2013-01-20 21:22:00,4.0,1.0,-100.00,South,179,4.0,5.0,87,0.00,,,-99.99,0.000000,,2013-01-21 04:22:00,
2013-01-20 21:32:00,5.0,3.0,-100.00,South,170,4.0,4.0,90,0.00,,,-99.99,0.000000,,2013-01-21 04:32:00,
2013-01-20 21:42:00,4.0,1.0,-100.00,South,176,4.0,4.0,87,0.00,,,-99.99,0.000000,,2013-01-21 04:42:00,
2013-01-20 21:52:00,4.0,1.0,-100.00,South,169,4.0,5.0,89,0.00,,,-99.99,0.000000,,2013-01-21 04:52:00,
2013-01-20 22:03:00,4.0,1.0,-100.00,SSE,166,4.0,4.0,89,0.00,,,-99.99,0.000000,,2013-01-21 05:03:00,
2013-01-20 22:12:00,4.0,1.0,-100.00,SSE,167,4.0,5.0,87,0.00,,,-99.99,0.000000,,2013-01-21 05:12:00,
2013-01-20 22:22:00,4.0,1.0,-100.00,South,173,4.0,5.0,87,0.00,,,-99.99,0.000000,,2013-01-21 05:22:00,
2013-01-20 22:33:00,3.0,0.0,-100.00,South,186,3.0,4.0,86,0.00,,,-99.99,0.000000,,2013-01-21 05:33:00,
2013-01-20 22:42:00,3.0,1.0,-100.00,South,179,2.0,3.0,89,0.00,,,-99.99,0.000000,,2013-01-21 05:42:00,
2013-01-20 22:52:00,4.0,2.0,-100.00,South,170,4.0,4.0,92,0.00,,,-99.99,0.000000,,2013-01-21 05:52:00,
2013-01-20 23:02:00,5.0,2.0,-100.00,South,179,4.0,5.0,88,0.00,,,-99.99,0.000000,,2013-01-21 06:02:00,
2013-01-20 23:12:00,4.0,1.0,-100.00,WSW,255,2.0,3.0,88,0.00,,,-99.99,0.000000,,2013-01-21 06:12:00,
2013-01-20 23:22:00,5.0,2.0,-100.00,SW,229,2.0,4.0,89,0.00,,,-99.99,0.000000,,2013-01-21 06:22:00,
2013-01-20 23:32:00,5.0,2.0,-100.00,SW,221,3.0,4.0,87,0.00,,,-99.99,0.000000,,2013-01-21 06:32:00,
2013-01-20 23:42:00,4.0,1.0,-100.00,SSW,199,2.0,5.0,88,0.00,,,-99.99,0.000000,,2013-01-21 06:42:00,
2013-01-20 23:50:00,4.0,1.0,-100.00,SSW,204,2.0,3.0,88,0.00,,,-99.99,0.000000,,2013-01-21 06:50:00,
2013-01-20 23:52:00,5.0,3.0,-100.00,SSE,162,4.0,6.0,88,0.00,,,-99.99,0.000000,,2013-01-21 06:52:00,